ELEKTRO-L 4

导读

ELEKTRO-L 4是独联体(CIS)地区发射的新一代地球同步轨道气象卫星,于莫斯科时间2023年2月5日8时成功发射入轨。它属于俄罗斯ELEKTRO-L系列静止气象卫星的第四颗,延续了系列卫星持续监测全球天气、获取大气参数、服务气象预报与灾害预警的核心任务,将提升北半球气象观测精度,为区域气候研究和应急气象保障提供关键数据支撑。

Basic Information
目录编号:
55506
目录名称:
ELEKTRO-L 4
国际标识:
2023-016A
轨道中心:
EARTH
卫星名称:
ELEKTRO-L 4
卫星全名:
--
卫星状态:
在轨 (已飞行1255 天)
发射日期:
2023-02-05 UTC
国别 :
俄罗斯(独联体) (CIS)
星等 :
--
Orbit Information
数据来源 国际轨道数据 AOE轨道数据
星历时间 2026-07-14T01:30:22+0800
13小时前
查看轨道信息
2026-07-12T17:00:00+0800
1天前
查看轨道信息
半长轴 42165.205km 42164.728km
偏心率 0.0001543 0.0001236
轨道倾角 0.124° 0.109°
近地点辐角 268.118° 48.244°
升交点赤经 277.905° 126.688°
平近点角 173.960° 56.127°
近地点 35780.561km 35781.379km
远地点 35793.575km 35791.803km
周期 1436.121分钟 1436.097分钟
每日圈数 1.002701 1.002718
Detailed Information
使用方式:
暂无
2D Orbit Map
3D Orbit Map
Orbit Altitude Analysis Chart
Orbit Inclination Analysis Chart
Orbit Comprehensive Analysis Chart
View Comprehensive Chart